FW2288 Weather Reports


time (UTC)temp
C
wind
direction
speed
KPH
gust
KPH
rain 1hr
cm
rain 24hr
cm
rain mn
cm
humidity
%
barometer
mb
20260503033107 4 342 14.5 30.6 0.00 0.00 0.00 63 1012.2
20260503032548 4 345 14.5 30.6 0.00 0.00 0.00 63 1012.2
20260503032048 5 340 16.1 24.1 0.00 0.00 0.00 63 1012.1
20260503031552 5 336 16.1 25.7 0.00 0.00 0.00 63 1012.1
20260503031049 5 331 16.1 29.0 0.00 0.00 0.00 63 1012.2
20260503030548 5 335 19.3 29.0 0.00 0.00 0.00 63 1012.2
20260503030056 5 352 17.7 25.7 0.00 0.00 0.00 63 1012.1
20260503025553 5 354 17.7 25.7 0.00 0.00 0.00 63 1012.1
20260503025046 5 338 17.7 24.1 0.00 0.00 0.00 63 1012.1
20260503024555 5 2 16.1 29.0 0.00 0.00 0.00 63 1012.1
20260503024048 5 347 16.1 29.0 0.00 0.00 0.00 62 1012.1
20260503023551 5 339 20.9 30.6 0.00 0.00 0.00 62 1012.1
20260503023102 5 345 20.9 30.6 0.00 0.00 0.00 61 1012.3
20260503022548 5 349 17.7 32.2 0.00 0.00 0.00 61 1012.1
20260503022047 5 339 17.7 32.2 0.00 0.00 0.00 61 1012.1
20260503021604 5 338 24.1 32.2 0.00 0.00 0.00 60 1012.1
20260503021049 5 340 16.1 27.4 0.00 0.00 0.00 60 1012.1
20260503020549 5 352 17.7 27.4 0.00 0.00 0.00 60 1012.1
20260503020114 5 340 19.3 25.7 0.00 0.00 0.00 60 1012.2
20260503015548 5 335 14.5 20.9 0.00 0.00 0.00 60 1012.1
20260503015048 5 340 12.9 20.9 0.00 0.00 0.00 60 1012.1
20260503014554 5 339 11.3 20.9 0.00 0.00 0.00 60 1012.1
20260503014049 5 324 12.9 19.3 0.00 0.00 0.00 60 1011.9
20260503013548 5 341 9.7 25.7 0.00 0.00 0.00 60 1011.8
20260503013103 5 340 12.9 25.7 0.00 0.00 0.00 60 1011.9
20260503012548 5 342 16.1 25.7 0.00 0.00 0.00 59 1011.8
20260503012048 5 326 12.9 19.3 0.00 0.00 0.00 60 1011.9
20260503011603 5 1 12.9 17.7 0.00 0.00 0.00 60 1011.8
20260503011050 6 341 11.3 22.5 0.00 0.00 0.00 59 1011.9
20260503010547 6 321 12.9 22.5 0.00 0.00 0.00 58 1011.9
20260503010055 6 1 14.5 20.9 0.00 0.00 0.00 59 1011.7
20260503005551 6 280 8.0 16.1 0.00 0.00 0.00 58 1011.7
20260503005049 6 333 9.7 16.1 0.00 0.00 0.00 59 1011.6
20260503004554 6 347 8.0 19.3 0.00 0.00 0.00 58 1011.6
20260503004129 6 323 12.9 19.3 0.00 0.00 0.00 57 1011.7
20260503003548 6 339 12.9 19.3 0.00 0.00 0.00 57 1011.8
20260503003101 6 339 11.3 16.1 0.00 0.00 0.00 56 1011.7
20260503002547 6 329 8.0 17.7 0.00 0.00 0.00 55 1011.7
20260503002048 6 314 9.7 22.5 0.00 0.00 0.00 55 1011.7
20260503001551 7 319 12.9 24.1 0.00 0.00 0.00 54 1011.5
20260503001048 7 339 12.9 24.1 0.00 0.00 0.00 53 1011.4
20260503000548 7 320 9.7 20.9 0.00 0.00 0.00 54 1011.3
20260502235548 7 335 11.3 27.4 0.00 0.00 0.00 53 1011.2
20260502235048 7 343 16.1 27.4 0.00 0.00 0.00 52 1011.1
20260502234554 7 325 12.9 29.0 0.00 0.00 0.00 52 1011.1
20260502234048 7 332 17.7 33.8 0.00 0.00 0.00 52 1011.0
20260502233547 7 337 20.9 33.8 0.00 0.00 0.00 51 1011.0
20260502233059 8 339 11.3 29.0 0.00 0.00 0.00 53 1010.9
20260502232548 8 4 16.1 30.6 0.00 0.00 0.00 51 1010.9
20260502232046 8 337 16.1 30.6 0.00 0.00 0.00 51 1010.9
20260502231551 8 335 20.9 33.8 0.00 0.00 0.00 51 1010.8
20260502231049 8 342 25.7 33.8 0.00 0.00 0.00 51 1010.8
20260502230549 8 332 20.9 32.2 0.00 0.00 0.00 51 1010.7
20260502230104 8 322 22.5 32.2 0.00 0.00 0.00 51 1010.8
20260502225548 8 319 24.1 32.2 0.00 0.00 0.00 50 1010.7
20260502225047 8 333 20.9 30.6 0.00 0.00 0.00 50 1010.7
20260502224552 8 351 16.1 25.7 0.00 0.00 0.00 50 1010.8
20260502224048 9 354 12.9 22.5 0.00 0.00 0.00 48 1010.8
20260502223548 9 345 12.9 22.5 0.00 0.00 0.00 47 1010.9
20260502223053 9 338 9.7 25.7 0.00 0.00 0.00 49 1011.0
20260502222549 9 349 17.7 25.7 0.00 0.00 0.00 48 1010.9
20260502222052 9 350 12.9 27.4 0.00 0.00 0.00 47 1010.9
20260502221554 9 287 14.5 27.4 0.00 0.00 0.00 46 1010.9
20260502221051 9 339 16.1 35.4 0.00 0.00 0.00 46 1010.7
20260502220548 10 342 20.9 35.4 0.00 0.00 0.00 47 1010.6
20260502220055 10 336 17.7 29.0 0.00 0.00 0.00 47 1010.6
20260502215549 10 226 11.3 32.2 0.00 0.00 0.00 50 1010.6
20260502215048 9 340 16.1 32.2 0.00 0.00 0.00 49 1010.6
20260502214552 9 349 14.5 33.8 0.00 0.00 0.00 48 1010.5
20260502214048 9 344 22.5 33.8 0.00 0.00 0.00 48 1010.6
20260502213548 10 320 17.7 35.4 0.00 0.00 0.00 48 1010.5
20260502213051 10 5 22.5 38.6 0.00 0.00 0.00 47 1010.4
20260502212548 10 338 27.4 40.2 0.00 0.00 0.00 46 1010.3
20260502212049 11 331 29.0 40.2 0.00 0.00 0.00 45 1010.2
20260502211558 11 330 27.4 40.2 0.00 0.00 0.00 46 1010.3
20260502211051 10 327 16.1 35.4 0.00 0.00 0.00 46 1010.1
20260502210553 10 334 20.9 43.5 0.00 0.00 0.00 48 1010.0
20260502210056 10 339 20.9 43.5 0.00 0.00 0.00 48 1010.0
20260502205549 10 349 25.7 37.0 0.00 0.00 0.00 45 1009.8
20260502205049 11 340 22.5 38.6 0.00 0.00 0.00 44 1009.8
20260502204607 11 342 22.5 41.8 0.00 0.00 0.00 44 1009.8
20260502204050 11 337 25.7 41.8 0.00 0.00 0.00 46 1009.6
20260502203550 11 321 29.0 41.8 0.00 0.00 0.00 44 1009.5
20260502203054 11 323 29.0 41.8 0.00 0.00 0.00 45 1009.6
20260502202550 11 316 25.7 38.6 0.00 0.00 0.00 44 1009.7
20260502202048 11 350 25.7 38.6 0.00 0.00 0.00 42 1009.7
20260502201557 12 340 24.1 33.8 0.00 0.00 0.00 42 1009.7
20260502201049 12 337 16.1 35.4 0.00 0.00 0.00 41 1009.7
20260502200550 12 342 16.1 35.4 0.00 0.00 0.00 42 1009.8
20260502200058 12 341 25.7 40.2 0.00 0.00 0.00 41 1009.6
20260502195550 12 355 27.4 40.2 0.00 0.00 0.00 41 1009.7
20260502195050 13 335 16.1 30.6 0.00 0.00 0.00 43 1009.7
20260502194555 13 356 9.7 32.2 0.00 0.00 0.00 41 1009.9
20260502194052 13 344 17.7 32.2 0.00 0.00 0.00 42 1009.9
20260502193549 13 4 17.7 32.2 0.00 0.00 0.00 41 1009.8
20260502193057 12 313 8.0 32.2 0.00 0.00 0.00 43 1009.9
20260502192549 12 337 12.9 32.2 0.00 0.00 0.00 41 1009.9
20260502192046 13 341 22.5 32.2 0.00 0.00 0.00 41 1009.7
20260502191601 13 330 11.3 27.4 0.00 0.00 0.00 38 1009.7
20260502191051 13 19 14.5 22.5 0.00 0.00 0.00 39 1009.6
20260502190548 13 1 12.9 22.5 0.00 0.00 0.00 40 1009.6
20260502190054 13 17 9.7 25.7 0.00 0.00 0.00 41 1009.4
20260502185550 13 331 8.0 35.4 0.00 0.00 0.00 38 1009.5
20260502185047 13 343 17.7 40.2 0.00 0.00 0.00 40 1009.6
20260502184551 13 338 25.7 40.2 0.00 0.00 0.00 40 1009.5
20260502184048 13 350 19.3 35.4 0.00 0.00 0.00 39 1009.6
20260502183549 13 343 9.7 32.2 0.00 0.00 0.00 39 1009.6
20260502183055 13 315 20.9 32.2 0.00 0.00 0.00 40 1009.7
20260502182548 13 1 8.0 16.1 0.00 0.00 0.00 43 1009.6
20260502182048 13 326 8.0 22.5 0.00 0.00 0.00 40 1009.6
20260502181552 12 320 12.9 29.0 0.00 0.00 0.00 41 1009.7
20260502181048 12 346 16.1 29.0 0.00 0.00 0.00 46 1009.9
20260502180548 12 2 16.1 29.0 0.00 0.00 0.00 42 1009.9
20260502164048 10 328 12.9 25.7 0.00 0.00 0.00 47 1011.3
20260502163548 10 340 11.3 22.5 0.00 0.00 0.00 45 1011.3
20260502163103 10 345 14.5 22.5 0.00 0.00 0.00 45 1011.3
20260502162547 10 360 4.8 25.7 0.00 0.00 0.00 50 1011.3
20260502162048 10 346 14.5 25.7 0.00 0.00 0.00 44 1011.4
20260502161559 10 335 12.9 29.0 0.00 0.00 0.00 46 1011.4
20260502161049 10 346 17.7 30.6 0.00 0.00 0.00 46 1011.4
20260502160546 10 347 17.7 30.6 0.00 0.00 0.00 45 1011.3
20260502152049 7 338 14.5 29.0 0.00 0.00 0.00 55 1011.7
20260502151556 7 305 16.1 30.6 0.00 0.00 0.00 58 1011.8
20260502151048 6 330 19.3 30.6 0.00 0.00 0.00 57 1011.7
20260502150548 6 333 16.1 27.4 0.00 0.00 0.00 57 1011.8
20260502150110 6 344 16.1 27.4 0.00 0.00 0.00 58 1011.7
20260502130549 5 356 14.5 22.5 0.00 0.00 0.00 61 1011.9
20260502130108 5 339 6.4 14.5 0.00 0.00 0.00 63 1011.8
20260502123547 5 352 11.3 29.0 0.00 0.00 0.00 62 1011.5
20260502123102 5 342 17.7 29.0 0.00 0.00 0.00 61 1011.5
20260502122547 5 358 12.9 24.1 0.00 0.00 0.00 62 1011.4
20260502122047 5 347 12.9 24.1 0.00 0.00 0.00 62 1011.3
20260502121554 5 353 11.3 24.1 0.00 0.00 0.00 63 1011.1
20260502121047 5 357 14.5 24.1 0.00 0.00 0.00 61 1011.1
20260502120547 5 344 12.9 20.9 0.00 0.00 0.00 61 1011.1
20260502115545 5 2 9.7 16.1 0.00 0.00 0.00 62 1011.3
20260502115052 5 359 8.0 19.3 0.00 0.00 0.00 63 1011.4
20260502114553 5 356 8.0 19.3 0.00 0.00 0.00 63 1011.4
20260502114048 5 337 11.3 17.7 0.00 0.00 0.00 64 1011.4
20260502113549 5 342 9.7 16.1 0.00 0.00 0.00 65 1011.3
20260502113052 5 342 9.7 14.5 0.00 0.00 0.00 66 1011.2
20260502112548 5 358 9.7 14.5 0.00 0.00 0.00 67 1011.1
20260502112047 5 1 8.0 17.7 0.00 0.00 0.00 67 1011.0
20260502111555 5 352 11.3 17.7 0.00 0.00 0.00 68 1011.0
20260502111047 5 360 9.7 14.5 0.00 0.00 0.00 68 1011.1
20260502110547 5 342 8.0 16.1 0.00 0.00 0.00 68 1011.0
20260502110056 5 4 9.7 20.9 0.00 0.00 0.00 67 1011.0
20260502105548 5 1 11.3 20.9 0.00 0.00 0.00 66 1010.8
20260502105047 5 342 12.9 24.1 0.00 0.00 0.00 65 1010.6
20260502104557 5 343 11.3 24.1 0.00 0.00 0.00 65 1010.8
20260502104046 4 345 14.5 24.1 0.00 0.00 0.00 64 1010.7
20260502103546 5 352 9.7 17.7 0.00 0.00 0.00 64 1010.9
20260502103054 5 342 8.0 20.9 0.00 0.00 0.00 64 1011.0
20260502102548 5 353 11.3 20.9 0.00 0.00 0.00 64 1011.0
20260502102048 5 358 12.9 24.1 0.00 0.00 0.00 64 1010.9
20260502101552 5 346 12.9 24.1 0.00 0.00 0.00 64 1011.0
20260502101048 5 335 9.7 24.1 0.00 0.00 0.00 66 1011.1
20260502100547 5 354 14.5 24.1 0.00 0.00 0.00 66 1011.0
20260502091050 6 4 11.3 22.5 0.00 0.00 0.00 74 1011.2
20260502090546 6 354 14.5 30.6 0.00 0.00 0.00 74 1011.3
20260502071047 7 354 14.5 20.9 0.00 0.00 0.00 74 1010.6
20260502070549 7 350 11.3 17.7 0.00 0.00 0.00 75 1010.7
20260502070055 7 1 11.3 16.1 0.00 0.00 0.00 74 1010.8
20260502065547 7 348 9.7 20.9 0.00 0.00 0.00 75 1010.9
20260502065047 7 1 12.9 20.9 0.00 0.00 0.00 75 1010.9
20260502064558 7 1 12.9 19.3 0.00 0.00 0.00 75 1011.0
20260502064048 7 357 9.7 16.1 0.00 0.00 0.00 75 1011.1
20260502063548 7 3 9.7 16.1 0.00 0.00 0.00 75 1011.0
20260502063117 7 359 11.3 16.1 0.00 0.00 0.00 75 1011.3
20260502062548 7 357 8.0 16.1 0.00 0.00 0.00 75 1011.3
20260502062046 7 4 11.3 16.1 0.00 0.00 0.00 75 1011.4
20260502061555 7 357 9.7 16.1 0.00 0.00 0.00 75 1011.3
20260502061048 7 360 9.7 19.3 0.00 0.00 0.00 75 1011.5
20260502060548 7 8 12.9 19.3 0.00 0.00 0.00 75 1011.5
20260502060058 7 354 9.7 19.3 0.00 0.00 0.00 76 1011.5
20260502055547 7 354 11.3 19.3 0.00 0.00 0.00 75 1011.5
20260502055048 7 354 9.7 17.7 0.00 0.00 0.00 75 1011.5
20260502054606 7 352 9.7 17.7 0.00 0.00 0.00 74 1011.4
20260502054047 7 346 12.9 17.7 0.00 0.00 0.00 74 1011.5
20260502053547 7 349 8.0 16.1 0.00 0.00 0.00 73 1011.5
20260502053103 7 354 9.7 16.1 0.00 0.00 0.00 73 1011.4
20260502052549 7 354 9.7 17.7 0.00 0.00 0.00 72 1011.4
20260502052048 7 357 12.9 17.7 0.00 0.00 0.00 72 1011.3
20260502051559 8 339 12.9 22.5 0.00 0.00 0.00 72 1011.2
20260502051050 8 335 12.9 24.1 0.00 0.00 0.00 72 1011.1
20260502050547 8 332 12.9 24.1 0.00 0.00 0.00 72 1011.1
20260502050057 8 344 12.9 24.1 0.00 0.00 0.00 73 1011.1
20260502045550 8 342 14.5 24.1 0.00 0.00 0.00 73 1011.2
20260502045047 8 348 12.9 22.5 0.00 0.00 0.00 73 1011.1
20260502044559 8 1 11.3 22.5 0.00 0.00 0.00 72 1011.2
20260502044048 8 348 14.5 25.7 0.00 0.00 0.00 73 1011.1
20260502043549 8 348 14.5 25.7 0.00 0.00 0.00 73 1011.3
20260502043101 8 340 16.1 29.0 0.00 0.00 0.00 73 1011.2
20260502042546 8 326 17.7 29.0 0.00 0.00 0.00 73 1011.2
20260502042048 8 347 19.3 27.4 0.00 0.00 0.00 73 1011.2
20260502041558 8 1 19.3 27.4 0.00 0.00 0.00 73 1011.0
20260502041048 8 5 12.9 24.1 0.00 0.00 0.00 74 1011.1
20260502040545 8 360 8.0 16.1 0.00 0.00 0.00 73 1011.4
20260502040104 8 5 8.0 16.1 0.00 0.00 0.00 73 1011.4
20260502035548 8 354 6.4 17.7 0.00 0.00 0.00 73 1011.3
20260502035049 9 5 9.7 25.7 0.00 0.00 0.00 73 1011.3
20260502034558 9 15 8.0 25.7 0.00 0.00 0.00 72 1011.2
20260502034049 9 348 19.3 25.7 0.00 0.00 0.00 72 1011.3
20260502033546 9 349 14.5 25.7 0.00 0.00 0.00 71 1011.1